User: anonymous   Login
Location: Unspecified
(0.0000°N, 0.0000°E)
Time: 17:02:04
(UTC+00:00)
Language:

NTS 1 - Orbit

View from above orbital plane
View from above orbital plane
View from above satellite
View from above satellite

Ground track
Ground track

The orbit data is extracted from the following two-line orbital elements,

1  7369U 74054A   18174.77279567 -.00000012 +00000-0 +00000-0 0  9990
2  7369 125.0573 293.4070 0074594 263.6137 017.6919 03.07214484493048
Epoch (UTC): 23 June 2018 18:32:49
Eccentricity: 0.0074594
inclination: 125.0573°
perigee height: 13461 km
apogee height: 13759 km
right ascension of ascending node: 293.4070°
argument of perigee: 263.6137°
revolutions per day: 3.07214484
mean anomaly at epoch: 17.6919°
orbit number at epoch: 49304

The dashed part of the orbit path shows where the satellite is in the earth's shadow,  

DLR